Location: Shepherdstown, WV
(39.4326°N, 77.8042°W)
Time: 05:28:48
(UTC-04:00)

SR - Pass Details

Date: 07 August 2021
Orbit: 581 x 874 km, 66.7° (Epoch: 24 September)

Event Time Altitude Azimuth Distance (km) Brightness Sun altitude
Rises 06:29:09 0° 234° (SW) 3,435 ? 1.4°
Reaches altitude 10° 06:31:56 10° 244° (WSW) 2,481 ? 1.9°
Maximum altitude 06:37:03 33° 307° (NW) 1,372 ? 2.8°
Drops below altitude 10° 06:41:57 10° 11° (N) 2,357 ? 3.7°
Sets 06:44:32 0° 21° (NNE) 3,241 ? 4.2°
